2021/01/20 22:34:54+0000,-39.32,-50.99,-33.75,-47.15,-54.91,-55.98
2021/01/20 22:35:46+0000,-38.98,-51.70,-33.58,-45.93,-54.88,-56.43
2021/01/20 22:36:38+0000,-38.42,-51.22,-32.77,-45.71,-54.98,-56.92
2021/01/20 22:37:30+0000,-39.28,-51.25,-32.83,-46.39,-54.71,-56.20
2021/01/20 22:38:22+0000,-39.43,-51.07,-33.51,-46.37,-55.10,-56.36
2021/01/20 22:39:14+0000,-38.54,-50.79,-33.92,-47.88,-55.53,-56.18
2021/01/20 22:40:07+0000,-39.00,-51.55,-33.86,-47.47,-55.09,-55.95
2021/01/20 22:41:06+0000,-39.01,-51.33,-33.69,-47.91,-55.10,-55.99
2021/01/20 22:41:58+0000,-38.82,-51.27,-33.75,-47.51,-55.00,-56.38
2021/01/20 22:42:50+0000,-38.57,-51.70,-33.15,-68.72,-54.03,-56.38
2021/01/20 22:43:42+0000,-39.42,-50.37,-34.22,-48.70,-55.00,-56.55
2021/01/20 22:44:35+0000,-39.05,-51.28,-33.20,-50.31,-54.85,-56.39
2021/01/20 22:45:27+0000,-39.30,-50.87,-33.56,-47.40,-54.89,-56.62
2021/01/20 22:46:19+0000,-39.15,-51.08,-33.46,-50.58,-54.75,-56.39
2021/01/20 22:47:11+0000,-38.42,-51.58,-33.75,-48.12,-55.24,-56.86
2021/01/20 22:48:03+0000,-38.66,-51.36,-33.11,-48.38,-54.96,-56.04
2021/01/20 22:48:55+0000,-39.01,-51.55,-32.84,-47.41,-54.63,-56.06
2021/01/20 22:49:47+0000,-39.20,-50.55,-33.65,-49.00,-54.95,-55.97
2021/01/20 22:50:39+0000,-39.15,-50.40,-33.57,-48.01,-54.70,-56.45
2021/01/20 22:51:39+0000,-38.78,-51.33,-33.75,-48.73,-54.76,-56.58
2021/01/20 22:52:31+0000,-38.64,-50.61,-33.66,-67.11,-54.56,-56.31
2021/01/20 22:53:23+0000,-38.51,-50.69,-33.54,-48.23,-54.97,-56.83
2021/01/20 22:54:15+0000,-38.94,-50.78,-33.47,-48.57,-55.43,-56.57
2021/01/20 22:55:07+0000,-38.19,-51.36,-33.44,-68.52,-54.82,-56.30
2021/01/20 22:55:59+0000,-38.61,-50.81,-33.80,-48.78,-54.94,-56.33
2021/01/20 22:56:51+0000,-39.53,-52.11,-33.50,-67.75,-55.42,-56.27
2021/01/20 22:57:43+0000,-38.69,-51.58,-34.27,-49.01,-55.56,-56.48
2021/01/20 22:58:35+0000,-38.50,-51.61,-34.26,-47.54,-55.12,-56.78
2021/01/20 22:59:27+0000,-38.75,-48.81,-33.35,-48.17,-55.11,-56.75
2021/01/20 23:00:20+0000,-39.46,-50.09,-33.66,-50.70,-54.68,-56.27
2021/01/20 23:01:20+0000,-38.63,-50.19,-33.11,-48.25,-54.92,-56.18
2021/01/20 23:02:12+0000,-39.10,-49.26,-34.80,-50.04,-54.98,-56.08
2021/01/20 23:03:04+0000,-39.20,-48.54,-34.14,-50.46,-54.64,-56.25
2021/01/20 23:03:56+0000,-39.40,-48.89,-33.83,-48.54,-55.02,-55.61
2021/01/20 23:04:48+0000,-39.28,-48.99,-33.90,-50.61,-54.86,-55.95
2021/01/20 23:05:40+0000,-38.93,-49.49,-33.20,-49.28,-54.95,-56.25
2021/01/20 23:06:32+0000,-38.98,-48.72,-33.36,-68.20,-55.14,-56.38
2021/01/20 23:07:24+0000,-39.14,-49.21,-32.87,-48.55,-54.21,-55.90
2021/01/20 23:08:16+0000,-38.48,-49.48,-33.14,-67.34,-54.79,-56.45
2021/01/20 23:09:08+0000,-38.79,-50.40,-33.03,-48.11,-55.24,-56.12
2021/01/20 23:10:01+0000,-39.10,-49.27,-33.52,-69.14,-55.11,-56.31
2021/01/20 23:11:06+0000,-38.73,-50.54,-33.22,-48.02,-54.76,-56.46
2021/01/20 23:11:58+0000,-38.69,-48.01,-33.55,-67.30,-54.56,-56.42
2021/01/20 23:12:50+0000,-39.10,-49.44,-33.58,-49.89,-55.52,-56.56
2021/01/20 23:13:42+0000,-39.21,-49.79,-33.55,-49.28,-54.63,-55.94
2021/01/20 23:14:34+0000,-39.56,-48.68,-32.57,-49.76,-54.86,-56.45
2021/01/20 23:15:26+0000,-39.36,-49.81,-33.22,-47.58,-55.13,-56.84
2021/01/20 23:16:18+0000,-39.49,-49.28,-33.34,-43.18,-55.41,-56.11
2021/01/20 23:17:10+0000,-38.33,-49.32,-33.66,-48.66,-55.11,-56.12
2021/01/20 23:18:02+0000,-39.04,-49.32,-32.83,-68.67,-55.24,-56.05
2021/01/20 23:18:54+0000,-38.93,-49.44,-32.61,-47.64,-54.66,-55.94
2021/01/20 23:19:46+0000,-39.54,-48.28,-33.79,-48.73,-55.51,-56.15
2021/01/20 23:20:38+0000,-39.51,-49.35,-33.61,-68.64,-55.42,-55.94
2021/01/20 23:21:48+0000,-39.17,-50.11,-33.99,-49.94,-55.29,-56.17
2021/01/20 23:22:40+0000,-38.76,-48.97,-33.57,-49.35,-55.19,-56.38
2021/01/20 23:23:32+0000,-39.36,-48.70,-33.82,-48.98,-54.58,-56.02
2021/01/20 23:24:24+0000,-38.98,-48.37,-32.85,-67.23,-54.67,-56.13
2021/01/20 23:25:16+0000,-38.96,-49.02,-32.12,-48.40,-54.74,-56.22
2021/01/20 23:26:08+0000,-39.18,-48.75,-33.25,-68.53,-54.98,-56.34
2021/01/20 23:27:00+0000,-38.50,-48.73,-33.21,-47.59,-55.12,-56.44
2021/01/20 23:27:53+0000,-38.59,-49.31,-31.96,-68.16,-54.52,-55.64
2021/01/20 23:28:45+0000,-38.38,-49.51,-32.30,-48.38,-54.98,-56.30
2021/01/20 23:29:37+0000,-39.24,-49.49,-32.65,-68.48,-54.69,-56.57
2021/01/20 23:30:29+0000,-38.80,-47.53,-33.68,-47.57,-54.77,-56.52
2021/01/20 23:31:34+0000,-38.72,-46.72,-33.51,-49.63,-55.05,-56.07
2021/01/20 23:32:26+0000,-38.14,-49.26,-32.82,-48.98,-54.60,-56.37
2021/01/20 23:33:18+0000,-38.80,-48.97,-32.37,-50.45,-55.29,-56.52
2021/01/20 23:34:10+0000,-38.65,-49.70,-32.76,-48.07,-54.78,-55.76
2021/01/20 23:35:02+0000,-37.87,-48.20,-33.22,-47.38,-55.20,-56.83
2021/01/20 23:35:54+0000,-38.13,-48.51,-33.29,-67.17,-54.89,-56.19
2021/01/20 23:36:46+0000,-39.27,-49.29,-32.74,-48.38,-54.50,-56.27
2021/01/20 23:37:38+0000,-38.62,-48.63,-32.67,-68.70,-54.90,-56.11
2021/01/20 23:38:30+0000,-38.18,-48.24,-33.29,-46.61,-55.35,-56.16
2021/01/20 23:39:22+0000,-37.44,-49.80,-33.51,-67.67,-55.61,-56.17
2021/01/20 23:40:15+0000,-38.27,-49.53,-33.56,-48.00,-54.84,-55.78
2021/01/20 23:41:15+0000,-37.91,-48.87,-33.04,-47.54,-54.68,-54.96
2021/01/20 23:42:07+0000,-36.74,-50.04,-33.27,-68.67,-55.19,-55.28
2021/01/20 23:42:59+0000,-37.72,-47.00,-33.49,-48.63,-54.17,-55.44
2021/01/20 23:43:51+0000,-37.73,-49.36,-33.81,-49.04,-54.59,-54.15
2021/01/20 23:44:43+0000,-37.47,-48.51,-33.84,-47.33,-55.00,-53.74
2021/01/20 23:45:35+0000,-37.22,-46.49,-32.57,-50.13,-54.86,-54.03
2021/01/20 23:46:27+0000,-38.02,-46.31,-33.26,-43.92,-54.57,-54.46
2021/01/20 23:47:19+0000,-37.99,-49.53,-32.75,-50.46,-54.83,-53.64
2021/01/20 23:48:11+0000,-37.54,-48.46,-33.41,-37.19,-54.35,-55.10
2021/01/20 23:49:03+0000,-37.04,-45.51,-32.59,-47.43,-54.71,-53.81
2021/01/20 23:49:56+0000,-36.88,-47.07,-32.37,-69.22,-54.58,-54.31
2021/01/20 23:50:48+0000,-36.71,-49.05,-32.75,-42.53,-54.90,-54.86
2021/01/20 23:51:53+0000,-36.91,-48.81,-32.38,-67.91,-54.39,-54.23
2021/01/20 23:52:45+0000,-38.01,-48.66,-33.29,-45.96,-54.53,-55.27
2021/01/20 23:53:37+0000,-37.88,-49.55,-32.05,-67.97,-54.74,-54.79
2021/01/20 23:54:29+0000,-37.44,-47.55,-33.47,-67.07,-54.55,-54.41
2021/01/20 23:55:21+0000,-37.69,-48.38,-33.34,-50.65,-54.11,-54.21
2021/01/20 23:56:13+0000,-37.74,-48.66,-33.91,-43.15,-54.15,-54.31
2021/01/20 23:57:05+0000,-37.73,-45.59,-32.57,-50.77,-54.23,-54.57
2021/01/20 23:57:57+0000,-37.52,-45.95,-32.89,-47.21,-54.16,-53.97
2021/01/20 23:58:49+0000,-36.83,-48.93,-33.77,-47.43,-54.39,-53.87
2021/01/20 23:59:42+0000,-37.37,-49.24,-32.79,-43.18,-54.51,-54.44
2021/01/21 00:00:34+0000,-37.59,-49.44,-32.91,-46.47,-54.73,-54.98
2021/01/21 00:01:43+0000,-37.44,-48.88,-33.06,-45.11,-54.21,-54.32
2021/01/21 00:02:35+0000,-37.31,-50.13,-32.88,-49.82,-54.32,-54.89
2021/01/21 00:03:27+0000,-36.72,-45.29,-33.12,-45.31,-54.61,-53.66
2021/01/21 00:04:19+0000,-36.42,-49.33,-33.17,-51.03,-54.15,-53.60
2021/01/21 00:05:11+0000,-37.63,-49.37,-33.97,-49.55,-54.95,-54.31
2021/01/21 00:06:03+0000,-37.22,-45.85,-32.47,-51.22,-54.44,-54.10
2021/01/21 00:06:55+0000,-36.54,-47.29,-33.82,-49.67,-54.20,-54.48
2021/01/21 00:07:47+0000,-36.22,-48.56,-32.82,-68.83,-54.17,-53.87
2021/01/21 00:08:39+0000,-36.74,-48.13,-32.37,-48.66,-54.65,-54.14
2021/01/21 00:09:31+0000,-36.79,-48.70,-32.48,-66.65,-53.98,-54.55
2021/01/21 00:10:24+0000,-37.97,-48.16,-33.42,-50.28,-54.56,-53.61
2021/01/21 00:11:24+0000,-37.96,-47.76,-32.86,-46.36,-54.58,-53.79
2021/01/21 00:12:16+0000,-36.37,-47.86,-32.36,-67.22,-54.22,-53.72
2021/01/21 00:13:08+0000,-36.67,-48.11,-33.23,-48.52,-53.93,-54.06
2021/01/21 00:14:00+0000,-37.50,-48.51,-33.01,-68.13,-54.37,-53.86
2021/01/21 00:14:52+0000,-36.96,-48.19,-33.21,-48.58,-54.44,-53.87
2021/01/21 00:15:44+0000,-37.37,-46.42,-32.91,-68.70,-54.39,-53.65
2021/01/21 00:16:36+0000,-37.24,-49.79,-32.23,-49.59,-54.66,-53.31
2021/01/21 00:17:28+0000,-36.96,-47.64,-32.95,-68.44,-54.59,-53.75
2021/01/21 00:18:20+0000,-37.65,-48.84,-32.70,-50.53,-54.40,-53.98
2021/01/21 00:19:13+0000,-37.03,-48.26,-32.90,-66.63,-54.65,-53.86
2021/01/21 00:20:06+0000,-37.61,-47.96,-32.58,-50.16,-54.33,-53.49
2021/01/21 00:21:06+0000,-38.33,-48.70,-32.83,-50.08,-54.99,-54.04
2021/01/21 00:21:58+0000,-37.62,-47.37,-32.96,-50.80,-54.60,-53.72
2021/01/21 00:22:50+0000,-37.38,-48.79,-32.88,-51.56,-54.73,-54.25
2021/01/21 00:23:42+0000,-37.50,-45.70,-32.94,-50.87,-53.69,-54.24
2021/01/21 00:24:34+0000,-36.80,-46.55,-32.62,-51.84,-54.32,-54.40
2021/01/21 00:25:26+0000,-35.76,-47.01,-32.32,-50.35,-54.79,-54.97
2021/01/21 00:26:18+0000,-37.88,-45.45,-32.33,-51.52,-54.07,-55.16
2021/01/21 00:27:10+0000,-36.70,-44.75,-26.59,-50.61,-54.56,-55.35
2021/01/21 00:28:02+0000,-36.90,-46.86,-27.09,-50.61,-54.64,-55.18
2021/01/21 00:28:54+0000,-36.54,-47.61,-33.05,-50.19,-54.66,-54.02
2021/01/21 00:29:47+0000,-37.55,-44.32,-33.09,-50.54,-54.99,-54.43
2021/01/21 00:30:39+0000,-37.04,-44.71,-26.78,-50.39,-54.00,-54.22
2021/01/21 00:31:39+0000,-35.71,-47.38,-27.26,-47.73,-53.80,-54.40
2021/01/21 00:32:31+0000,-37.05,-46.89,-26.74,-48.53,-53.49,-54.55
2021/01/21 00:33:23+0000,-36.52,-48.57,-33.37,-48.39,-53.32,-54.72
2021/01/21 00:34:15+0000,-36.68,-44.36,-33.15,-48.29,-53.84,-54.35
2021/01/21 00:35:07+0000,-35.85,-49.31,-26.75,-48.87,-54.35,-54.93
2021/01/21 00:35:59+0000,-36.99,-46.26,-32.72,-49.17,-53.55,-54.82
2021/01/21 00:36:51+0000,-35.41,-47.87,-32.67,-49.26,-53.55,-54.34
2021/01/21 00:37:43+0000,-35.85,-45.93,-32.64,-49.25,-54.08,-54.46
2021/01/21 00:38:35+0000,-36.49,-44.44,-26.60,-49.64,-53.64,-54.89
2021/01/21 00:39:27+0000,-34.16,-46.27,-33.41,-49.31,-54.56,-54.43
2021/01/21 00:40:20+0000,-33.68,-46.76,-32.32,-49.60,-53.82,-54.64
2021/01/21 00:41:19+0000,-36.64,-46.23,-32.26,-49.60,-54.00,-54.43
2021/01/21 00:42:11+0000,-37.55,-46.34,-27.36,-49.60,-54.42,-54.56
2021/01/21 00:43:03+0000,-36.84,-47.74,-27.28,-49.31,-53.82,-54.42
2021/01/21 00:43:55+0000,-36.44,-47.82,-32.76,-49.11,-54.19,-53.94
2021/01/21 00:44:48+0000,-36.81,-46.36,-32.48,-48.77,-53.63,-54.55
2021/01/21 00:45:40+0000,-35.08,-46.68,-33.10,-49.02,-54.75,-55.80
2021/01/21 00:46:32+0000,-37.75,-46.65,-33.44,-49.45,-54.40,-56.02
2021/01/21 00:47:24+0000,-36.30,-47.64,-32.28,-49.06,-54.24,-55.37
2021/01/21 00:48:16+0000,-37.14,-47.01,-32.33,-49.33,-54.35,-55.69
2021/01/21 00:49:08+0000,-36.17,-48.69,-33.90,-50.08,-54.56,-55.12
2021/01/21 00:50:00+0000,-36.81,-44.98,-33.34,-50.28,-54.66,-55.50
2021/01/21 00:51:00+0000,-37.29,-45.29,-33.23,-50.36,-53.63,-55.87
2021/01/21 00:51:52+0000,-35.56,-46.20,-31.98,-48.86,-53.91,-55.53
2021/01/21 00:52:44+0000,-36.48,-44.67,-32.78,-49.88,-53.70,-55.93
2021/01/21 00:53:37+0000,-36.64,-48.10,-33.76,-49.48,-53.99,-55.62
2021/01/21 00:54:29+0000,-36.50,-46.21,-33.74,-50.00,-52.92,-55.08
2021/01/21 00:55:21+0000,-36.56,-46.69,-33.05,-49.74,-53.12,-55.14
2021/01/21 00:56:13+0000,-37.24,-46.19,-33.50,-50.14,-54.24,-55.87
2021/01/21 00:57:05+0000,-36.39,-46.05,-34.63,-50.67,-54.48,-55.65
2021/01/21 00:57:57+0000,-35.72,-46.45,-33.10,-50.14,-54.04,-55.44
2021/01/21 00:58:49+0000,-36.24,-45.47,-34.23,-49.42,-54.52,-56.07
2021/01/21 00:59:41+0000,-37.35,-46.54,-34.29,-50.71,-54.33,-55.67
2021/01/21 01:00:33+0000,-36.66,-46.20,-33.66,-50.11,-54.08,-55.52
2021/01/21 01:01:34+0000,-36.82,-47.41,-33.68,-50.39,-53.94,-55.24
2021/01/21 01:02:26+0000,-36.53,-46.49,-33.84,-50.01,-53.75,-55.26
2021/01/21 01:03:18+0000,-34.87,-46.59,-33.86,-49.78,-53.40,-56.20
2021/01/21 01:04:10+0000,-36.59,-46.64,-33.99,-50.38,-54.55,-55.56
2021/01/21 01:05:02+0000,-37.17,-46.29,-33.64,-50.41,-53.94,-55.60
2021/01/21 01:05:54+0000,-36.08,-47.66,-33.82,-50.37,-53.46,-55.86
2021/01/21 01:06:46+0000,-37.67,-48.39,-32.55,-49.66,-54.17,-55.17
2021/01/21 01:07:38+0000,-37.01,-48.19,-33.80,-50.14,-54.08,-55.38
2021/01/21 01:08:30+0000,-36.93,-48.65,-34.10,-50.14,-54.27,-56.09
2021/01/21 01:09:22+0000,-36.56,-48.39,-33.67,-49.96,-54.03,-55.58
2021/01/21 01:10:15+0000,-36.52,-45.67,-33.67,-50.23,-54.32,-55.31
2021/01/21 01:11:15+0000,-37.11,-47.65,-33.59,-50.40,-54.16,-55.63
2021/01/21 01:12:07+0000,-36.34,-50.21,-34.07,-50.97,-54.09,-55.63
2021/01/21 01:12:59+0000,-37.29,-47.80,-33.64,-49.92,-54.32,-55.63
2021/01/21 01:13:51+0000,-37.05,-49.97,-34.16,-50.49,-54.68,-55.51
2021/01/21 01:14:43+0000,-37.31,-45.09,-33.50,-51.05,-54.99,-55.70
2021/01/21 01:15:35+0000,-37.33,-47.98,-33.85,-50.86,-55.01,-55.17
2021/01/21 01:16:27+0000,-36.39,-47.85,-33.98,-51.46,-54.58,-55.51
2021/01/21 01:17:19+0000,-38.00,-46.46,-33.58,-50.19,-54.31,-55.63
2021/01/21 01:18:11+0000,-37.51,-46.81,-33.82,-51.00,-54.04,-55.62
2021/01/21 01:19:03+0000,-36.38,-47.42,-33.01,-50.16,-54.45,-55.16
2021/01/21 01:19:56+0000,-37.10,-47.68,-34.06,-50.16,-53.83,-55.27
2021/01/21 01:20:48+0000,-35.54,-46.96,-33.89,-49.78,-54.41,-55.58
2021/01/21 01:24:10+0000,-37.26,-47.16,-26.36,-49.83,-54.17,-56.35
2021/01/21 01:25:02+0000,-36.73,-46.48,-26.41,-49.64,-54.32,-55.86
2021/01/21 01:25:54+0000,-36.27,-48.59,-34.16,-49.48,-54.17,-55.56
2021/01/21 01:26:46+0000,-36.95,-44.06,-34.28,-50.45,-54.06,-55.80
2021/01/21 01:27:38+0000,-36.62,-40.50,-34.34,-50.49,-53.97,-55.65
2021/01/21 01:28:30+0000,-37.24,-46.50,-34.22,-50.59,-54.38,-55.58
2021/01/21 01:29:22+0000,-36.14,-50.80,-33.92,-50.05,-54.06,-55.89
2021/01/21 01:30:15+0000,-37.03,-46.76,-34.11,-50.49,-54.34,-56.01
2021/01/21 01:33:32+0000,-36.87,-42.86,-33.97,-50.24,-54.20,-56.08
2021/01/21 01:34:24+0000,-37.35,-45.44,-34.82,-50.36,-54.04,-55.38
2021/01/21 01:35:16+0000,-37.55,-44.83,-34.22,-50.11,-54.12,-55.49
2021/01/21 01:36:08+0000,-38.19,-45.31,-33.84,-49.98,-54.12,-56.04
2021/01/21 01:37:00+0000,-37.17,-44.82,-34.62,-49.79,-54.25,-55.49
2021/01/21 01:37:52+0000,-37.68,-49.79,-33.95,-49.75,-53.86,-55.76
2021/01/21 01:38:44+0000,-37.97,-45.82,-34.67,-50.51,-54.05,-55.53
2021/01/21 01:39:36+0000,-36.18,-47.00,-34.28,-50.72,-54.12,-55.61
2021/01/21 01:40:29+0000,-36.54,-42.74,-34.66,-50.42,-53.82,-56.17
2021/01/21 01:43:42+0000,-36.02,-47.05,-34.59,-49.44,-54.40,-55.93
2021/01/21 01:44:34+0000,-38.82,-40.69,-35.04,-49.29,-53.88,-55.55
2021/01/21 01:45:26+0000,-35.73,-47.43,-34.17,-50.26,-53.79,-55.69
2021/01/21 01:46:18+0000,-33.93,-47.76,-34.45,-50.16,-54.55,-55.47
2021/01/21 01:47:10+0000,-36.98,-46.59,-34.38,-49.83,-54.14,-56.01
2021/01/21 01:48:02+0000,-37.12,-45.99,-34.86,-50.77,-54.11,-55.59
2021/01/21 01:48:54+0000,-38.20,-47.96,-34.17,-50.25,-54.03,-56.06
2021/01/21 01:49:47+0000,-39.33,-47.37,-33.77,-49.82,-54.62,-56.29
2021/01/21 01:50:39+0000,-35.00,-48.82,-34.48,-50.54,-54.35,-55.42
2021/01/21 01:53:56+0000,-37.10,-43.57,-33.77,-50.18,-54.24,-55.64
2021/01/21 01:54:48+0000,-38.03,-48.07,-34.11,-49.71,-54.19,-55.64
2021/01/21 01:55:40+0000,-33.38,-48.52,-34.30,-50.42,-54.29,-55.72
2021/01/21 01:56:32+0000,-34.47,-49.08,-34.06,-50.57,-53.98,-55.95
2021/01/21 01:57:24+0000,-37.16,-49.01,-34.54,-50.99,-54.24,-55.30
2021/01/21 01:58:16+0000,-37.72,-49.21,-33.67,-50.21,-54.56,-55.67
2021/01/21 01:59:09+0000,-37.98,-48.88,-34.66,-49.58,-53.97,-55.91
2021/01/21 02:00:01+0000,-38.51,-50.17,-33.85,-49.87,-54.42,-55.91
2021/01/21 02:03:09+0000,-37.47,-49.39,-34.18,-50.56,-54.15,-55.71
2021/01/21 02:04:01+0000,-37.22,-48.50,-34.26,-50.41,-53.86,-56.03
2021/01/21 02:04:53+0000,-38.54,-48.58,-34.53,-49.94,-54.04,-55.94
2021/01/21 02:05:45+0000,-38.18,-49.80,-34.79,-50.60,-54.38,-56.20
2021/01/21 02:06:37+0000,-37.02,-49.47,-34.32,-51.14,-53.89,-55.88
2021/01/21 02:07:29+0000,-38.58,-48.42,-34.53,-50.11,-53.87,-55.90
2021/01/21 02:08:21+0000,-38.14,-51.07,-34.04,-50.42,-54.11,-55.43
2021/01/21 02:09:13+0000,-37.54,-47.18,-34.49,-50.23,-54.08,-55.61
2021/01/21 02:10:06+0000,-37.79,-50.34,-34.11,-50.35,-54.23,-55.90
2021/01/21 02:13:29+0000,-39.56,-47.65,-34.50,-50.81,-53.75,-54.29
2021/01/21 02:14:21+0000,-37.07,-50.56,-34.37,-50.80,-53.52,-55.39
2021/01/21 02:15:13+0000,-36.93,-49.25,-34.89,-50.54,-53.82,-54.36
2021/01/21 02:16:05+0000,-37.84,-50.27,-35.25,-50.04,-54.20,-55.11
2021/01/21 02:16:57+0000,-37.21,-49.77,-34.79,-49.40,-53.76,-54.64
2021/01/21 02:17:49+0000,-36.46,-45.72,-34.43,-49.94,-53.53,-55.27
2021/01/21 02:18:41+0000,-37.29,-46.65,-33.81,-49.91,-54.10,-54.95
2021/01/21 02:19:33+0000,-36.34,-49.11,-34.33,-50.14,-53.90,-54.82
2021/01/21 02:20:26+0000,-37.55,-49.88,-33.62,-49.92,-53.34,-55.38
2021/01/21 02:23:58+0000,-37.19,-48.28,-34.78,-49.71,-54.17,-55.70
2021/01/21 02:24:50+0000,-36.34,-48.08,-34.37,-50.83,-53.66,-55.44
2021/01/21 02:25:42+0000,-36.34,-47.75,-34.48,-50.34,-53.65,-55.36
2021/01/21 02:26:34+0000,-37.50,-47.17,-34.24,-50.58,-54.13,-56.56
2021/01/21 02:27:26+0000,-36.26,-49.71,-34.45,-49.66,-54.02,-56.09
2021/01/21 02:28:18+0000,-36.35,-48.33,-34.22,-50.50,-54.55,-55.56
2021/01/21 02:29:10+0000,-38.23,-48.44,-34.20,-49.63,-54.48,-56.50
2021/01/21 02:30:03+0000,-38.28,-48.13,-34.14,-49.98,-54.36,-55.97
2021/01/21 02:33:17+0000,-38.32,-48.90,-34.16,-49.90,-54.25,-56.49
2021/01/21 02:34:09+0000,-37.77,-49.50,-33.68,-50.38,-54.40,-55.80
2021/01/21 02:35:01+0000,-38.44,-46.68,-34.27,-50.53,-53.83,-55.70
2021/01/21 02:35:53+0000,-37.64,-49.20,-34.12,-50.52,-53.97,-56.33
2021/01/21 02:36:45+0000,-37.99,-48.16,-34.29,-50.15,-54.28,-54.09
2021/01/21 02:37:37+0000,-37.38,-48.57,-34.50,-49.82,-54.49,-55.64
2021/01/21 02:38:29+0000,-36.66,-48.20,-34.36,-50.27,-54.42,-55.21
2021/01/21 02:39:21+0000,-38.05,-49.67,-34.21,-50.28,-54.81,-54.49
2021/01/21 02:40:14+0000,-36.83,-45.78,-33.95,-49.81,-54.95,-54.91
2021/01/21 02:43:25+0000,-36.40,-49.34,-33.91,-49.75,-54.76,-56.09
2021/01/21 02:44:18+0000,-37.65,-46.45,-34.40,-49.44,-54.19,-55.67
2021/01/21 02:45:10+0000,-36.69,-45.75,-34.26,-49.81,-54.84,-54.92
2021/01/21 02:46:02+0000,-37.55,-48.38,-34.29,-49.50,-54.09,-56.27
2021/01/21 02:46:54+0000,-36.74,-47.29,-34.46,-50.11,-54.90,-55.12
2021/01/21 02:47:46+0000,-37.53,-48.37,-34.35,-49.41,-54.31,-53.94
2021/01/21 02:48:38+0000,-37.96,-49.50,-34.13,-50.03,-54.46,-53.69
2021/01/21 02:49:30+0000,-38.03,-48.36,-34.92,-50.84,-54.32,-53.15
2021/01/21 02:50:23+0000,-35.87,-49.91,-34.59,-50.22,-54.58,-53.28
2021/01/21 02:53:36+0000,-37.24,-49.05,-33.89,-50.01,-53.82,-53.25
2021/01/21 02:54:28+0000,-37.04,-48.90,-34.07,-49.63,-53.84,-53.17
2021/01/21 02:55:20+0000,-37.64,-47.28,-33.85,-49.67,-53.63,-53.17
2021/01/21 02:56:12+0000,-36.01,-46.57,-34.10,-49.83,-54.16,-53.19
2021/01/21 02:57:04+0000,-36.65,-47.39,-34.39,-49.95,-53.94,-53.35
2021/01/21 02:57:56+0000,-35.88,-46.38,-33.84,-49.04,-54.15,-53.41
2021/01/21 02:58:48+0000,-37.35,-46.11,-33.82,-49.75,-54.00,-53.24
2021/01/21 02:59:41+0000,-36.85,-46.62,-34.10,-46.97,-53.69,-53.05
2021/01/21 03:00:33+0000,-37.57,-48.54,-34.21,-49.80,-53.91,-54.09
2021/01/21 03:03:45+0000,-37.60,-48.32,-34.22,-49.92,-53.84,-53.01
2021/01/21 03:04:37+0000,-36.88,-48.06,-35.05,-49.76,-52.83,-52.97
2021/01/21 03:05:29+0000,-37.93,-47.83,-34.74,-49.65,-53.89,-53.26
2021/01/21 03:06:21+0000,-38.14,-49.08,-34.30,-50.54,-53.64,-53.11
2021/01/21 03:07:13+0000,-38.06,-48.68,-34.62,-49.94,-53.61,-53.62
2021/01/21 03:08:06+0000,-36.35,-49.16,-34.30,-49.98,-53.66,-53.61
2021/01/21 03:08:58+0000,-37.25,-46.99,-34.42,-49.60,-53.53,-53.50
2021/01/21 03:09:50+0000,-36.99,-48.73,-34.74,-49.56,-53.84,-52.89
2021/01/21 03:10:42+0000,-36.15,-49.00,-34.86,-49.69,-54.15,-53.60
2021/01/21 03:14:00+0000,-38.25,-44.94,-33.90,-49.28,-53.58,-53.56
2021/01/21 03:14:52+0000,-36.33,-48.35,-34.63,-50.23,-53.49,-53.20
2021/01/21 03:15:44+0000,-37.61,-48.13,-34.52,-50.01,-54.03,-53.38
2021/01/21 03:16:36+0000,-35.88,-48.85,-34.42,-49.84,-54.19,-54.12
2021/01/21 03:17:28+0000,-36.76,-48.45,-34.47,-49.99,-54.15,-54.22
2021/01/21 03:18:20+0000,-36.86,-49.02,-34.35,-48.91,-53.25,-53.78
2021/01/21 03:19:12+0000,-36.91,-48.77,-34.57,-49.59,-54.25,-54.04
2021/01/21 03:20:05+0000,-35.47,-48.87,-33.70,-50.03,-54.20,-55.05
2021/01/21 03:23:18+0000,-36.77,-47.90,-34.72,-49.57,-53.45,-54.08
2021/01/21 03:24:10+0000,-35.78,-48.64,-34.86,-49.99,-53.17,-54.48
2021/01/21 03:25:02+0000,-37.13,-48.67,-34.41,-49.43,-54.12,-53.92
2021/01/21 03:25:54+0000,-38.03,-48.30,-34.19,-50.17,-53.46,-53.36
2021/01/21 03:26:46+0000,-37.16,-47.67,-34.14,-49.42,-54.47,-53.46
2021/01/21 03:27:38+0000,-36.33,-48.06,-34.63,-49.78,-53.80,-53.85
2021/01/21 03:28:30+0000,-36.35,-47.89,-34.29,-50.09,-54.11,-54.16
2021/01/21 03:29:22+0000,-37.58,-49.59,-34.13,-50.51,-54.12,-54.14
2021/01/21 03:30:15+0000,-36.83,-48.81,-34.66,-49.90,-54.07,-53.62
2021/01/21 03:33:27+0000,-36.32,-48.02,-34.63,-49.91,-53.75,-54.19
2021/01/21 03:34:19+0000,-37.18,-48.22,-34.43,-50.22,-53.22,-54.06
2021/01/21 03:35:11+0000,-37.89,-48.71,-34.19,-49.55,-54.12,-53.90
2021/01/21 03:36:03+0000,-35.77,-48.15,-34.13,-50.22,-54.55,-53.72
2021/01/21 03:36:55+0000,-37.97,-47.61,-34.61,-49.95,-53.91,-53.45
2021/01/21 03:37:47+0000,-36.46,-47.93,-34.61,-49.59,-53.81,-53.70
2021/01/21 03:38:39+0000,-37.22,-47.32,-34.08,-50.03,-53.80,-54.34
2021/01/21 03:39:31+0000,-38.04,-47.21,-34.25,-50.52,-53.81,-53.65
2021/01/21 03:40:24+0000,-38.31,-48.34,-33.78,-49.69,-53.93,-53.73
2021/01/21 03:43:36+0000,-35.89,-48.39,-34.03,-49.75,-54.03,-53.33
2021/01/21 03:44:28+0000,-36.57,-48.15,-34.78,-49.14,-54.34,-54.49
2021/01/21 03:45:20+0000,-37.24,-46.32,-34.41,-49.88,-53.97,-53.18
2021/01/21 03:46:12+0000,-35.65,-46.54,-34.78,-49.50,-53.72,-53.68
2021/01/21 03:47:04+0000,-35.32,-48.20,-34.44,-49.90,-54.16,-53.39
2021/01/21 03:47:57+0000,-36.52,-47.99,-34.48,-49.25,-53.65,-53.36
2021/01/21 03:48:49+0000,-38.12,-46.46,-34.41,-49.75,-53.68,-53.85
2021/01/21 03:49:41+0000,-36.19,-47.74,-34.57,-49.77,-54.35,-53.88
2021/01/21 03:50:33+0000,-35.51,-48.13,-34.36,-49.48,-53.61,-54.68
2021/01/21 03:53:51+0000,-37.14,-47.77,-34.21,-49.90,-53.82,-53.93
2021/01/21 03:54:43+0000,-35.49,-48.66,-34.34,-49.49,-53.86,-53.09
2021/01/21 03:55:35+0000,-36.44,-46.79,-34.15,-49.68,-53.68,-53.24
2021/01/21 03:56:27+0000,-36.87,-47.39,-34.00,-50.08,-53.65,-53.04
2021/01/21 03:57:19+0000,-36.69,-45.80,-34.09,-49.90,-53.38,-53.10
2021/01/21 03:58:11+0000,-36.50,-45.88,-33.77,-49.03,-53.51,-53.36
2021/01/21 03:59:03+0000,-36.21,-45.97,-33.36,-49.35,-54.25,-52.90
2021/01/21 03:59:56+0000,-36.46,-45.94,-33.59,-50.02,-53.46,-53.28
2021/01/21 04:00:48+0000,-35.09,-46.76,-34.18,-49.94,-54.29,-54.18
2021/01/21 04:04:05+0000,-38.34,-46.21,-34.47,-48.93,-53.42,-53.06
2021/01/21 04:04:57+0000,-36.64,-46.24,-34.77,-50.23,-54.22,-54.41
2021/01/21 04:05:49+0000,-37.62,-46.64,-34.89,-50.33,-53.98,-54.12
2021/01/21 04:06:41+0000,-36.56,-46.57,-34.81,-50.36,-53.42,-54.06
2021/01/21 04:07:33+0000,-37.40,-45.58,-34.80,-50.27,-53.24,-53.49
2021/01/21 04:08:25+0000,-37.76,-45.91,-34.03,-50.09,-54.33,-54.08
2021/01/21 04:09:17+0000,-36.57,-46.06,-34.25,-49.93,-53.59,-53.91
2021/01/21 04:10:10+0000,-37.21,-46.26,-34.20,-50.10,-53.22,-54.09
2021/01/21 04:13:23+0000,-36.71,-46.77,-34.25,-49.62,-54.43,-53.08
2021/01/21 04:14:15+0000,-37.36,-45.85,-33.94,-50.11,-53.88,-53.12
2021/01/21 04:15:07+0000,-33.63,-47.37,-33.92,-51.09,-53.60,-53.64
2021/01/21 04:15:59+0000,-37.10,-45.30,-34.40,-49.99,-53.90,-53.30
2021/01/21 04:16:51+0000,-36.39,-47.20,-34.18,-50.53,-54.04,-53.45
2021/01/21 04:17:43+0000,-27.49,-46.05,-34.70,-50.45,-53.58,-53.68
2021/01/21 04:18:35+0000,-34.05,-46.50,-34.84,-50.35,-54.00,-53.83
2021/01/21 04:19:27+0000,-37.11,-45.42,-34.74,-50.31,-54.25,-53.69
2021/01/21 04:20:20+0000,-37.56,-47.54,-34.17,-50.37,-54.06,-54.17
2021/01/21 04:23:38+0000,-34.04,-45.34,-34.69,-50.73,-53.75,-53.69
2021/01/21 04:24:30+0000,-37.81,-45.71,-33.98,-50.81,-53.63,-53.54
2021/01/21 04:25:22+0000,-36.47,-48.31,-34.56,-50.27,-54.01,-53.44
2021/01/21 04:26:14+0000,-37.13,-46.24,-34.25,-51.03,-53.96,-54.14
2021/01/21 04:27:06+0000,-34.19,-46.83,-33.80,-49.98,-53.87,-53.86
2021/01/21 04:27:58+0000,-35.99,-46.26,-34.27,-50.34,-53.58,-53.75
2021/01/21 04:28:50+0000,-37.63,-47.69,-33.64,-50.10,-54.00,-54.03
2021/01/21 04:29:42+0000,-33.33,-46.37,-33.40,-50.47,-54.19,-54.05
2021/01/21 04:30:34+0000,-33.31,-45.93,-33.96,-50.71,-54.62,-54.00
2021/01/21 04:31:36+0000,-38.51,-46.93,-34.37,-50.34,-54.32,-53.88
2021/01/21 04:32:28+0000,-35.27,-46.11,-34.27,-50.83,-54.26,-56.03
2021/01/21 04:33:20+0000,-36.71,-46.00,-33.99,-50.61,-54.22,-56.06